Location: Castillon
(43.0896°N, 0.2156°E)
Time: 19:50:40
(UTC+00:00)

Cosmos 1707 - Pass Details

Date: 16 June 2021
Orbit: 514 x 529 km, 82.5° (Epoch: 23 July)

Event Time Altitude Azimuth Distance (km) Brightness Sun altitude
Exits shadow 20:52:36 - 190° (S) 2,378 5.7 -10.8°
Reaches altitude 10° 20:54:06 10° 191° (S) 1,758 5.0 -11.0°
Maximum altitude 20:57:58 79° 278° (W) 542 2.8 -11.5°
Drops below altitude 10° 21:01:53 10° 6° (N) 1,781 6.1 -11.9°
Sets 21:04:02 0° 7° (N) 2,678 7.0 -12.2°
